GFSSE_prec_precacc_339.txt.gz
Total_Precipitation_Accumulation
0.66 0.32 0.33 0.19 0.15 0.12 0.17 0.15 0.08 0.09 0.12 0.19 0.19 0.20 0.22 0.22 0.20 0.23 0.24 0.22 0.25 0.24 0.17 0.13 0.24 0.33 0.32 0.39 0.42 0.60 0.46 0.41 0.65 1.39 1.83 1.61 1.66 1.45 1.27 1.46 1.40 1.32 1.94
1.15 0.62 0.69 0.30 0.12 0.09 0.10 0.12 0.16 0.11 0.13 0.13 0.14 0.25 0.29 0.32 0.24 0.21 0.26 0.37 0.44 0.45 0.37 0.25 0.36 0.51 0.47 0.47 0.38 0.41 0.27 0.11 0.15 0.50 1.28 1.49 1.11 1.01 1.23 1.67 1.66 1.43 1.48
1.38 1.05 0.83 0.70 0.25 0.17 0.35 0.15 0.09 0.10 0.11 0.05 0.05 0.11 0.29 0.36 0.33 0.36 0.56 0.58 0.73 0.70 0.50 0.37 0.57 0.79 0.80 0.61 0.43 0.46 0.24 0.10 0.14 0.23 0.57 0.81 1.14 1.36 0.97 1.14 1.40 1.37 1.44
1.05 1.30 0.95 1.08 1.14 0.54 0.44 0.25 0.19 0.13 0.07 0.06 0.16 0.19 0.38 0.32 0.47 0.96 1.22 1.14 0.98 0.93 0.64 0.53 0.54 1.37 1.06 0.86 0.52 0.31 0.21 0.18 0.24 0.21 0.28 0.67 1.16 1.46 0.89 0.74 0.92 1.14 1.39
0.98 0.63 0.99 1.15 1.02 0.81 0.48 0.30 0.44 0.49 0.36 0.10 0.11 0.33 0.48 0.69 1.44 2.42 2.66 1.67 1.80 1.70 1.21 0.91 0.69 1.01 1.19 0.84 0.49 0.32 0.25 0.17 0.23 0.45 0.60 0.66 0.80 1.36 0.98 0.78 1.01 1.16 1.23
1.28 1.44 2.10 1.87 1.58 0.88 0.64 0.83 1.09 1.07 0.82 0.57 0.51 0.73 1.03 1.54 2.46 2.43 1.60 1.41 1.85 3.04 1.63 1.18 0.68 0.39 0.30 0.59 0.62 0.66 0.39 0.23 0.56 0.94 1.06 0.82 0.84 1.03 0.78 0.57 0.72 1.01 0.75
2.65 2.49 3.19 4.34 3.86 2.93 1.92 1.42 1.43 1.65 1.34 1.37 1.78 1.84 1.88 1.84 2.50 1.42 0.70 1.07 2.46 2.34 1.07 0.94 0.57 0.32 0.45 0.22 0.27 0.42 0.39 0.33 0.53 0.96 0.98 1.25 1.65 1.60 0.63 0.66 0.69 0.63 0.62
6.24 5.30 5.64 6.72 5.83 4.59 3.53 2.33 2.32 2.14 1.88 1.91 1.67 2.14 2.46 1.36 1.12 0.78 0.42 0.44 0.64 0.56 0.57 0.47 0.22 0.27 0.43 0.28 0.23 0.26 0.38 0.42 0.96 2.05 2.12 1.30 1.42 1.41 0.75 0.88 0.80 0.60 0.48
4.44 5.86 6.91 7.55 8.37 7.51 4.24 3.28 3.30 3.37 2.92 2.39 2.16 1.95 2.16 1.62 1.25 0.97 0.45 0.32 0.26 0.17 0.30 0.37 0.28 0.36 0.41 0.43 0.47 0.43 0.58 0.78 1.19 2.62 2.20 1.81 1.11 1.41 1.35 0.97 0.77 0.54 0.38
2.47 3.25 3.60 3.74 7.20 11.80 8.00 5.03 4.14 3.80 3.59 2.59 2.39 1.76 1.31 1.54 1.55 1.40 0.58 0.29 0.23 0.16 0.31 0.56 0.65 0.70 0.50 0.52 0.63 0.47 0.65 0.65 0.83 0.72 0.81 0.97 0.82 1.42 1.60 1.34 0.81 0.59 0.48
2.75 2.39 1.90 2.61 3.41 5.98 9.68 6.54 5.20 4.22 2.79 2.60 2.23 1.68 1.18 0.96 0.89 0.86 0.49 0.32 0.27 0.27 0.45 0.76 0.73 0.80 0.98 0.69 0.75 0.81 0.53 0.33 0.63 0.73 0.43 0.77 0.70 1.13 1.21 1.16 0.88 0.73 0.54
2.04 2.37 1.92 1.33 1.39 2.07 4.51 4.27 4.57 4.59 2.75 2.18 1.79 1.30 1.13 0.96 0.58 0.41 0.30 0.27 0.42 0.37 0.42 0.49 0.70 0.86 0.78 0.38 0.40 0.43 0.30 0.56 0.86 1.31 0.67 0.47 0.92 1.01 1.11 1.22 0.98 0.84 0.81
1.49 1.77 1.33 1.22 1.03 1.23 2.29 1.98 2.43 3.15 3.41 2.31 1.99 1.25 1.23 0.86 0.54 0.51 0.32 0.34 0.70 0.47 0.24 0.30 0.42 0.51 0.49 0.52 0.31 0.25 0.29 0.65 0.53 1.41 1.08 0.63 1.22 1.30 1.47 1.16 1.25 1.39 1.21
0.81 1.09 1.07 0.63 0.76 1.09 1.07 1.29 1.56 1.59 3.18 2.92 2.22 1.68 1.37 0.91 0.44 0.35 0.24 0.25 0.24 0.42 0.24 0.17 0.22 0.32 0.47 0.63 0.58 0.39 0.38 0.58 0.48 0.78 0.91 0.63 0.93 1.37 1.40 1.31 1.15 1.14 1.36
0.87 1.03 0.96 0.82 0.82 0.76 0.51 0.67 1.32 1.09 1.90 2.91 2.33 1.83 1.35 0.87 0.45 0.26 0.25 0.26 0.18 0.26 0.35 0.32 0.25 0.32 0.40 0.53 0.62 0.47 0.61 0.69 0.69 0.77 0.73 0.51 0.67 1.16 1.13 1.07 1.23 1.35 1.27
0.79 1.16 0.91 0.76 0.88 0.80 0.62 0.65 1.12 1.01 1.10 2.21 1.87 1.39 1.56 0.92 0.51 0.38 0.35 0.22 0.29 0.27 0.29 0.47 0.44 0.39 0.39 0.39 0.59 0.70 0.76 0.87 0.89 1.09 1.26 1.07 0.67 0.65 1.11 1.31 1.10 1.35 1.61
0.56 0.70 0.64 0.87 1.00 0.97 0.84 0.85 1.13 1.15 1.12 1.59 1.33 1.33 1.74 1.00 0.74 0.58 0.50 0.35 0.27 0.32 0.28 0.31 0.43 0.67 0.74 0.60 0.55 0.78 0.92 0.69 0.61 0.67 0.62 0.59 0.68 0.76 0.99 1.26 1.59 1.42 1.15
0.24 0.62 0.97 1.17 1.41 1.45 0.72 0.86 0.92 0.98 1.24 1.47 1.23 1.33 1.82 1.12 0.78 0.76 0.68 0.55 0.45 0.33 0.28 0.29 0.35 0.59 0.71 0.59 0.47 0.50 0.53 0.57 0.43 0.34 0.34 0.34 0.39 0.47 0.77 0.82 0.94 1.79 1.57
0.21 0.39 0.73 1.10 1.25 1.64 1.47 1.91 1.66 1.21 1.13 1.37 1.43 1.39 1.88 1.49 1.22 0.83 0.69 0.71 0.58 0.39 0.39 0.46 0.50 0.44 0.48 0.40 0.38 0.40 0.39 0.49 0.58 0.60 0.33 0.40 0.36 0.31 0.46 0.98 0.99 1.13 1.24
0.09 0.38 0.79 1.21 1.76 3.06 2.33 1.45 0.97 0.95 0.92 1.08 1.28 1.42 2.12 1.64 1.90 1.86 1.20 1.05 0.88 0.63 0.54 0.60 0.56 0.55 0.45 0.37 0.38 0.44 0.44 0.65 0.65 0.72 0.82 0.69 0.48 0.46 0.52 0.81 1.20 1.03 1.24
0.16 0.53 0.85 0.92 1.08 1.12 0.68 0.54 0.54 0.68 1.01 1.05 1.09 1.16 2.31 2.35 1.80 2.31 2.75 1.62 1.39 0.96 0.75 0.80 0.83 0.77 0.66 0.51 0.67 0.58 0.52 0.44 0.51 0.56 0.66 0.69 0.74 0.60 0.77 0.70 1.02 1.07 1.14
0.33 0.38 0.26 0.15 0.12 0.26 0.35 0.39 0.39 0.44 0.68 0.82 1.37 1.07 1.36 1.94 1.86 1.32 1.66 1.67 1.37 1.11 1.02 0.82 0.60 0.49 0.43 0.59 0.62 0.54 0.48 0.45 0.34 0.42 0.52 0.64 0.67 0.65 0.53 0.66 0.81 0.73 1.11
0.04 0.10 0.08 0.09 0.09 0.11 0.17 0.26 0.35 0.40 0.50 0.72 1.40 1.47 1.15 1.55 1.44 1.26 1.33 1.51 1.91 1.80 1.41 1.17 0.95 0.70 0.59 0.47 0.66 0.70 0.54 0.40 0.25 0.17 0.26 0.35 0.32 0.33 0.28 0.46 0.57 0.58 0.76
0.07 0.03 0.09 0.16 0.19 0.15 0.17 0.15 0.18 0.22 0.27 0.43 0.86 1.27 1.35 1.36 1.34 1.42 1.71 1.56 1.43 1.53 1.34 1.09 1.11 1.02 0.86 0.56 0.61 0.60 0.51 0.48 0.54 0.38 0.20 0.24 0.31 0.26 0.26 0.40 0.42 0.50 0.70
0.04 0.09 0.16 0.18 0.32 0.40 0.40 0.25 0.28 0.24 0.30 0.39 0.69 1.27 1.49 1.76 1.98 1.78 1.80 2.04 1.87 1.51 1.38 1.40 1.10 1.18 1.38 1.06 0.61 0.56 0.52 0.49 0.48 0.47 0.35 0.24 0.33 0.25 0.25 0.29 0.38 0.50 0.61
0.07 0.14 0.24 0.23 0.32 0.49 0.63 0.59 0.45 0.45 0.36 0.34 0.49 1.13 1.46 1.78 2.31 2.67 2.74 2.68 2.33 1.99 1.92 1.75 1.88 1.71 1.19 1.22 1.26 1.00 0.82 0.90 0.84 0.87 0.71 0.36 0.31 0.30 0.31 0.30 0.23 0.25 0.38

GFSSE_prec_precacc_342.txt.gz
Total_Precipitation_Accumulation
0.66 0.32 0.33 0.19 0.15 0.12 0.17 0.15 0.08 0.10 0.13 0.19 0.19 0.20 0.22 0.22 0.21 0.24 0.24 0.23 0.25 0.24 0.17 0.13 0.24 0.33 0.32 0.39 0.42 0.60 0.46 0.42 0.66 1.40 1.84 1.62 1.66 1.45 1.27 1.46 1.40 1.32 1.94
1.15 0.62 0.69 0.30 0.12 0.09 0.10 0.12 0.16 0.11 0.13 0.14 0.14 0.25 0.29 0.32 0.24 0.21 0.26 0.37 0.44 0.45 0.37 0.25 0.36 0.51 0.47 0.47 0.38 0.41 0.27 0.11 0.16 0.50 1.29 1.49 1.11 1.01 1.23 1.67 1.66 1.43 1.48
1.38 1.05 0.83 0.70 0.25 0.17 0.36 0.16 0.09 0.11 0.12 0.06 0.06 0.11 0.30 0.36 0.33 0.36 0.56 0.58 0.73 0.70 0.50 0.37 0.57 0.79 0.80 0.61 0.43 0.46 0.24 0.10 0.15 0.24 0.57 0.82 1.14 1.36 0.97 1.14 1.40 1.37 1.44
1.05 1.30 0.95 1.08 1.14 0.54 0.45 0.26 0.20 0.14 0.08 0.06 0.17 0.19 0.38 0.32 0.47 0.96 1.22 1.14 0.98 0.93 0.64 0.53 0.54 1.37 1.06 0.86 0.52 0.31 0.21 0.18 0.24 0.21 0.28 0.67 1.16 1.46 0.89 0.74 0.92 1.14 1.39
0.98 0.63 0.99 1.15 1.02 0.81 0.48 0.30 0.44 0.50 0.36 0.10 0.11 0.33 0.48 0.69 1.44 2.42 2.66 1.67 1.80 1.70 1.21 0.91 0.69 1.01 1.19 0.84 0.49 0.32 0.25 0.17 0.23 0.45 0.60 0.66 0.81 1.36 0.98 0.78 1.01 1.16 1.23
1.28 1.44 2.10 1.87 1.58 0.88 0.64 0.83 1.09 1.07 0.82 0.57 0.51 0.73 1.03 1.54 2.46 2.43 1.60 1.41 1.85 3.04 1.63 1.18 0.68 0.39 0.30 0.59 0.62 0.66 0.39 0.23 0.56 0.94 1.06 0.82 0.84 1.03 0.78 0.57 0.72 1.01 0.75
2.65 2.49 3.19 4.34 3.86 2.93 1.92 1.42 1.43 1.65 1.34 1.37 1.78 1.84 1.88 1.84 2.50 1.42 0.70 1.07 2.46 2.34 1.07 0.94 0.57 0.32 0.45 0.22 0.27 0.42 0.39 0.33 0.53 0.96 0.98 1.25 1.65 1.61 0.63 0.66 0.69 0.63 0.62
6.24 5.30 5.64 6.72 5.83 4.59 3.53 2.33 2.32 2.14 1.88 1.91 1.67 2.14 2.46 1.36 1.12 0.78 0.42 0.44 0.64 0.56 0.57 0.47 0.22 0.27 0.43 0.28 0.23 0.26 0.38 0.42 0.96 2.05 2.13 1.32 1.46 1.47 0.78 0.88 0.80 0.60 0.48
4.44 5.86 6.91 7.55 8.37 7.51 4.24 3.28 3.30 3.37 2.92 2.39 2.16 1.95 2.16 1.62 1.25 0.97 0.45 0.32 0.26 0.17 0.30 0.37 0.28 0.36 0.41 0.43 0.47 0.43 0.58 0.78 1.19 2.62 2.20 1.85 1.25 1.59 1.62 1.12 0.79 0.54 0.38
2.47 3.25 3.60 3.74 7.20 11.80 8.00 5.03 4.14 3.80 3.59 2.59 2.39 1.76 1.31 1.54 1.55 1.40 0.58 0.29 0.23 0.16 0.31 0.56 0.65 0.70 0.50 0.52 0.63 0.47 0.65 0.65 0.83 0.72 0.81 0.97 0.90 1.52 1.75 1.63 1.15 0.77 0.52
2.75 2.39 1.90 2.61 3.41 5.98 9.68 6.54 5.20 4.22 2.79 2.60 2.23 1.68 1.18 0.96 0.89 0.86 0.49 0.32 0.27 0.27 0.45 0.76 0.73 0.80 0.98 0.69 0.75 0.81 0.53 0.33 0.63 0.73 0.43 0.77 0.70 1.13 1.23 1.26 1.02 0.89 0.65
2.04 2.37 1.92 1.33 1.39 2.07 4.51 4.27 4.57 4.59 2.75 2.18 1.79 1.30 1.13 0.96 0.58 0.41 0.30 0.27 0.42 0.37 0.42 0.49 0.70 0.86 0.78 0.38 0.40 0.43 0.30 0.56 0.86 1.31 0.67 0.47 0.92 1.01 1.13 1.25 1.01 0.90 0.85
1.49 1.77 1.33 1.22 1.03 1.23 2.29 1.98 2.43 3.15 3.41 2.31 1.99 1.25 1.23 0.86 0.54 0.51 0.32 0.34 0.70 0.47 0.24 0.30 0.42 0.51 0.49 0.52 0.31 0.25 0.29 0.65 0.53 1.41 1.08 0.63 1.22 1.30 1.47 1.16 1.26 1.41 1.21
0.81 1.09 1.07 0.63 0.76 1.09 1.07 1.29 1.56 1.59 3.18 2.92 2.22 1.68 1.37 0.91 0.44 0.35 0.24 0.25 0.24 0.42 0.24 0.17 0.22 0.32 0.47 0.63 0.58 0.39 0.38 0.58 0.48 0.78 0.91 0.63 0.93 1.37 1.40 1.31 1.15 1.14 1.37
0.87 1.03 0.96 0.82 0.82 0.76 0.51 0.67 1.32 1.09 1.90 2.91 2.33 1.83 1.35 0.87 0.45 0.26 0.25 0.26 0.18 0.26 0.35 0.32 0.25 0.32 0.40 0.53 0.62 0.47 0.61 0.69 0.69 0.77 0.73 0.51 0.67 1.16 1.13 1.07 1.23 1.35 1.27
0.79 1.16 0.91 0.76 0.88 0.80 0.62 0.65 1.12 1.01 1.10 2.21 1.87 1.39 1.56 0.92 0.51 0.38 0.35 0.22 0.29 0.27 0.29 0.47 0.44 0.39 0.39 0.39 0.59 0.70 0.76 0.87 0.89 1.09 1.26 1.07 0.67 0.65 1.11 1.31 1.10 1.35 1.61
0.56 0.70 0.64 0.87 1.00 0.97 0.84 0.85 1.13 1.15 1.12 1.59 1.33 1.33 1.74 1.00 0.74 0.58 0.50 0.35 0.27 0.32 0.28 0.31 0.43 0.67 0.74 0.60 0.55 0.78 0.92 0.69 0.61 0.67 0.62 0.59 0.68 0.76 0.99 1.26 1.59 1.42 1.15
0.24 0.62 0.97 1.17 1.41 1.45 0.72 0.86 0.92 0.98 1.24 1.47 1.23 1.33 1.82 1.12 0.78 0.76 0.68 0.55 0.45 0.33 0.28 0.29 0.35 0.59 0.71 0.59 0.47 0.50 0.53 0.57 0.43 0.34 0.34 0.34 0.39 0.47 0.77 0.82 0.94 1.79 1.57
0.21 0.39 0.73 1.10 1.25 1.64 1.47 1.91 1.66 1.21 1.13 1.37 1.43 1.39 1.88 1.49 1.22 0.83 0.69 0.71 0.58 0.39 0.39 0.46 0.50 0.44 0.48 0.40 0.38 0.40 0.39 0.49 0.58 0.60 0.33 0.40 0.36 0.31 0.46 0.98 0.99 1.13 1.24
0.09 0.38 0.79 1.21 1.76 3.06 2.33 1.45 0.97 0.95 0.92 1.08 1.28 1.42 2.12 1.64 1.90 1.86 1.20 1.05 0.88 0.63 0.54 0.60 0.56 0.55 0.45 0.37 0.38 0.44 0.44 0.65 0.65 0.72 0.82 0.69 0.48 0.46 0.52 0.81 1.20 1.03 1.24
0.16 0.53 0.85 0.92 1.08 1.12 0.68 0.54 0.54 0.68 1.01 1.05 1.09 1.16 2.31 2.35 1.80 2.31 2.75 1.62 1.39 0.96 0.75 0.80 0.83 0.77 0.66 0.51 0.67 0.58 0.52 0.44 0.51 0.56 0.66 0.69 0.74 0.60 0.77 0.70 1.02 1.07 1.14
0.33 0.38 0.26 0.15 0.12 0.26 0.35 0.39 0.39 0.44 0.68 0.82 1.37 1.07 1.36 1.94 1.86 1.32 1.66 1.67 1.37 1.11 1.02 0.82 0.60 0.49 0.43 0.59 0.62 0.54 0.48 0.45 0.34 0.42 0.52 0.64 0.67 0.65 0.53 0.66 0.81 0.73 1.11
0.04 0.10 0.08 0.09 0.09 0.11 0.17 0.26 0.35 0.40 0.50 0.72 1.40 1.47 1.15 1.55 1.44 1.26 1.33 1.51 1.91 1.80 1.41 1.17 0.95 0.70 0.59 0.47 0.66 0.70 0.54 0.40 0.25 0.17 0.26 0.35 0.32 0.33 0.28 0.46 0.57 0.58 0.76
0.07 0.03 0.09 0.16 0.19 0.15 0.17 0.15 0.18 0.22 0.27 0.43 0.86 1.27 1.35 1.36 1.34 1.42 1.71 1.56 1.43 1.53 1.34 1.09 1.11 1.02 0.86 0.56 0.61 0.60 0.51 0.48 0.54 0.38 0.20 0.24 0.31 0.26 0.26 0.40 0.42 0.50 0.70
0.04 0.09 0.16 0.18 0.32 0.40 0.40 0.25 0.28 0.24 0.30 0.39 0.69 1.27 1.49 1.76 1.98 1.78 1.80 2.04 1.87 1.51 1.38 1.40 1.10 1.18 1.38 1.06 0.61 0.56 0.52 0.49 0.48 0.47 0.35 0.24 0.33 0.25 0.25 0.29 0.38 0.50 0.61
0.07 0.14 0.24 0.23 0.32 0.49 0.63 0.59 0.45 0.45 0.36 0.34 0.49 1.13 1.46 1.78 2.31 2.67 2.74 2.68 2.33 1.99 1.92 1.75 1.88 1.71 1.19 1.22 1.26 1.00 0.82 0.90 0.84 0.87 0.71 0.36 0.31 0.30 0.31 0.30 0.23 0.25 0.38

GFSSE_prec_precacc_348.txt.gz
Total_Precipitation_Accumulation
0.66 0.33 0.33 0.19 0.15 0.12 0.17 0.15 0.09 0.11 0.13 0.19 0.19 0.20 0.22 0.22 0.21 0.24 0.24 0.23 0.26 0.25 0.18 0.14 0.24 0.33 0.32 0.39 0.42 0.60 0.46 0.42 0.66 1.41 1.85 1.62 1.66 1.46 1.27 1.46 1.40 1.32 1.94
1.15 0.62 0.69 0.30 0.12 0.09 0.10 0.12 0.17 0.13 0.14 0.14 0.14 0.25 0.29 0.32 0.24 0.21 0.26 0.38 0.44 0.45 0.38 0.25 0.36 0.51 0.47 0.47 0.38 0.41 0.27 0.11 0.16 0.51 1.30 1.49 1.11 1.01 1.23 1.67 1.66 1.43 1.48
1.38 1.05 0.83 0.70 0.25 0.17 0.37 0.17 0.11 0.12 0.12 0.07 0.06 0.11 0.30 0.36 0.33 0.36 0.56 0.58 0.73 0.70 0.50 0.37 0.57 0.79 0.80 0.61 0.43 0.46 0.24 0.10 0.15 0.24 0.57 0.82 1.14 1.36 0.97 1.14 1.40 1.37 1.44
1.05 1.30 0.95 1.09 1.14 0.55 0.46 0.27 0.22 0.15 0.09 0.07 0.17 0.19 0.38 0.32 0.47 0.96 1.22 1.14 0.98 0.93 0.64 0.53 0.54 1.37 1.06 0.86 0.52 0.31 0.21 0.18 0.24 0.21 0.28 0.67 1.17 1.46 0.89 0.74 0.92 1.14 1.39
0.98 0.63 0.99 1.15 1.02 0.82 0.50 0.31 0.45 0.50 0.36 0.10 0.11 0.33 0.48 0.69 1.44 2.42 2.66 1.67 1.80 1.70 1.21 0.91 0.69 1.01 1.19 0.84 0.49 0.32 0.25 0.17 0.23 0.45 0.60 0.66 0.83 1.39 1.02 0.78 1.02 1.16 1.23
1.28 1.44 2.10 1.87 1.58 0.88 0.65 0.84 1.09 1.07 0.82 0.57 0.51 0.73 1.03 1.54 2.46 2.43 1.60 1.41 1.85 3.04 1.63 1.18 0.68 0.39 0.30 0.59 0.62 0.66 0.39 0.23 0.56 0.94 1.06 0.82 0.85 1.14 0.87 0.60 0.72 1.01 0.75
2.65 2.49 3.19 4.34 3.86 2.93 1.92 1.42 1.43 1.65 1.34 1.37 1.78 1.84 1.88 1.84 2.50 1.42 0.70 1.07 2.46 2.34 1.07 0.94 0.57 0.32 0.45 0.22 0.27 0.42 0.39 0.33 0.53 0.96 0.98 1.25 1.67 1.68 0.74 0.74 0.72 0.64 0.62
6.24 5.30 5.64 6.72 5.83 4.59 3.53 2.33 2.32 2.14 1.88 1.91 1.67 2.14 2.46 1.36 1.12 0.78 0.42 0.44 0.64 0.56 0.57 0.47 0.22 0.27 0.43 0.28 0.23 0.26 0.38 0.42 0.96 2.05 2.13 1.32 1.50 1.59 1.06 1.07 0.86 0.62 0.49
4.44 5.86 6.91 7.55 8.37 7.51 4.24 3.28 3.30 3.37 2.92 2.39 2.16 1.95 2.16 1.62 1.25 0.97 0.45 0.32 0.26 0.17 0.30 0.37 0.28 0.36 0.41 0.43 0.47 0.43 0.58 0.78 1.19 2.62 2.20 1.85 1.27 1.68 1.82 1.40 0.94 0.60 0.42
2.47 3.25 3.60 3.74 7.20 11.80 8.00 5.03 4.14 3.80 3.59 2.59 2.39 1.76 1.31 1.54 1.55 1.40 0.58 0.29 0.23 0.16 0.31 0.56 0.65 0.70 0.50 0.52 0.63 0.47 0.65 0.65 0.83 0.72 0.81 0.97 0.90 1.52 1.78 1.70 1.26 1.01 0.78
2.75 2.39 1.90 2.61 3.41 5.98 9.68 6.54 5.20 4.22 2.79 2.60 2.23 1.68 1.18 0.96 0.89 0.86 0.49 0.32 0.27 0.27 0.45 0.76 0.73 0.80 0.98 0.69 0.75 0.81 0.53 0.33 0.63 0.73 0.43 0.77 0.70 1.13 1.24 1.27 1.05 0.99 0.82
2.04 2.37 1.92 1.33 1.39 2.07 4.51 4.27 4.57 4.59 2.75 2.18 1.79 1.30 1.13 0.96 0.58 0.41 0.30 0.27 0.42 0.37 0.42 0.49 0.70 0.86 0.78 0.38 0.40 0.43 0.30 0.56 0.86 1.31 0.67 0.47 0.92 1.01 1.13 1.25 1.01 0.91 0.87
1.49 1.77 1.33 1.22 1.03 1.23 2.29 1.98 2.43 3.15 3.41 2.31 1.99 1.25 1.23 0.86 0.54 0.51 0.32 0.34 0.70 0.47 0.24 0.30 0.42 0.51 0.49 0.52 0.31 0.25 0.29 0.65 0.53 1.41 1.08 0.63 1.22 1.30 1.47 1.16 1.26 1.41 1.21
0.81 1.09 1.07 0.63 0.76 1.09 1.07 1.29 1.56 1.59 3.18 2.92 2.22 1.68 1.37 0.91 0.44 0.35 0.24 0.25 0.24 0.42 0.24 0.17 0.22 0.32 0.47 0.63 0.58 0.39 0.38 0.58 0.48 0.78 0.91 0.63 0.93 1.37 1.40 1.31 1.15 1.14 1.37
0.87 1.03 0.96 0.82 0.82 0.76 0.51 0.67 1.32 1.09 1.90 2.91 2.33 1.83 1.35 0.87 0.45 0.26 0.25 0.26 0.18 0.26 0.35 0.32 0.25 0.32 0.40 0.53 0.62 0.47 0.61 0.69 0.69 0.77 0.73 0.51 0.67 1.16 1.13 1.07 1.23 1.35 1.27
0.79 1.16 0.91 0.76 0.88 0.80 0.62 0.65 1.12 1.01 1.10 2.21 1.87 1.39 1.56 0.92 0.51 0.38 0.35 0.22 0.29 0.27 0.29 0.47 0.44 0.39 0.39 0.39 0.59 0.70 0.76 0.87 0.89 1.09 1.26 1.07 0.67 0.65 1.11 1.31 1.10 1.35 1.62
0.56 0.70 0.64 0.87 1.00 0.97 0.84 0.85 1.13 1.15 1.12 1.59 1.33 1.33 1.74 1.00 0.74 0.58 0.50 0.35 0.27 0.32 0.28 0.31 0.43 0.67 0.74 0.60 0.55 0.78 0.92 0.69 0.61 0.67 0.62 0.59 0.68 0.76 0.99 1.26 1.59 1.42 1.17
0.24 0.62 0.97 1.17 1.41 1.45 0.72 0.86 0.92 0.98 1.24 1.47 1.23 1.33 1.82 1.12 0.78 0.76 0.68 0.55 0.45 0.33 0.28 0.29 0.35 0.59 0.71 0.59 0.47 0.50 0.53 0.57 0.43 0.34 0.34 0.34 0.39 0.47 0.77 0.82 0.94 1.80 1.59
0.21 0.39 0.73 1.10 1.25 1.64 1.47 1.91 1.66 1.21 1.13 1.37 1.43 1.39 1.88 1.49 1.22 0.83 0.69 0.71 0.58 0.39 0.39 0.46 0.50 0.44 0.48 0.40 0.38 0.40 0.39 0.49 0.58 0.60 0.33 0.40 0.36 0.31 0.46 0.98 0.99 1.13 1.24
0.09 0.38 0.79 1.21 1.76 3.06 2.33 1.45 0.97 0.95 0.92 1.08 1.28 1.42 2.12 1.64 1.90 1.86 1.20 1.05 0.88 0.63 0.54 0.60 0.56 0.55 0.45 0.37 0.38 0.44 0.44 0.65 0.65 0.72 0.82 0.69 0.48 0.46 0.52 0.81 1.20 1.03 1.24
0.16 0.53 0.85 0.92 1.08 1.12 0.68 0.54 0.54 0.68 1.01 1.05 1.09 1.16 2.31 2.35 1.80 2.31 2.75 1.62 1.39 0.96 0.75 0.80 0.83 0.77 0.66 0.51 0.67 0.58 0.52 0.44 0.51 0.56 0.66 0.69 0.74 0.60 0.77 0.70 1.02 1.07 1.14
0.33 0.38 0.26 0.15 0.12 0.26 0.35 0.39 0.39 0.44 0.68 0.82 1.37 1.07 1.36 1.94 1.86 1.32 1.66 1.67 1.37 1.11 1.02 0.82 0.60 0.49 0.43 0.59 0.62 0.54 0.48 0.45 0.34 0.42 0.52 0.64 0.67 0.65 0.53 0.66 0.81 0.73 1.11
0.04 0.10 0.08 0.09 0.09 0.11 0.17 0.26 0.35 0.40 0.50 0.72 1.40 1.47 1.15 1.55 1.44 1.26 1.33 1.51 1.91 1.80 1.41 1.17 0.95 0.70 0.59 0.47 0.66 0.70 0.54 0.40 0.25 0.17 0.26 0.35 0.32 0.33 0.28 0.46 0.57 0.58 0.76
0.07 0.03 0.09 0.16 0.19 0.15 0.17 0.15 0.18 0.22 0.27 0.43 0.86 1.27 1.35 1.36 1.34 1.42 1.71 1.56 1.43 1.53 1.34 1.09 1.11 1.02 0.86 0.56 0.61 0.60 0.51 0.48 0.54 0.38 0.20 0.24 0.31 0.26 0.26 0.40 0.42 0.50 0.70
0.04 0.09 0.16 0.18 0.32 0.40 0.40 0.25 0.28 0.24 0.30 0.39 0.69 1.27 1.49 1.76 1.98 1.78 1.80 2.04 1.87 1.51 1.38 1.40 1.10 1.18 1.38 1.06 0.61 0.56 0.52 0.49 0.48 0.47 0.35 0.24 0.33 0.25 0.25 0.29 0.38 0.50 0.61
0.07 0.14 0.24 0.23 0.32 0.49 0.63 0.59 0.45 0.45 0.36 0.34 0.49 1.13 1.46 1.78 2.31 2.67 2.74 2.68 2.33 1.99 1.92 1.75 1.88 1.71 1.19 1.22 1.26 1.00 0.82 0.90 0.84 0.87 0.72 0.36 0.31 0.30 0.31 0.30 0.23 0.25 0.38

GFSSE_prec_precacc_354.txt.gz
Total_Precipitation_Accumulation
0.66 0.33 0.33 0.19 0.15 0.13 0.19 0.16 0.09 0.11 0.14 0.20 0.19 0.20 0.22 0.22 0.21 0.24 0.24 0.23 0.26 0.25 0.18 0.14 0.24 0.33 0.32 0.39 0.42 0.60 0.46 0.42 0.67 1.42 1.85 1.62 1.66 1.46 1.27 1.46 1.40 1.32 1.94
1.15 0.62 0.69 0.30 0.12 0.10 0.12 0.13 0.18 0.13 0.15 0.15 0.14 0.25 0.29 0.32 0.24 0.21 0.26 0.38 0.44 0.45 0.38 0.25 0.36 0.51 0.47 0.47 0.38 0.41 0.27 0.11 0.16 0.51 1.30 1.49 1.11 1.01 1.23 1.67 1.66 1.43 1.48
1.38 1.05 0.83 0.70 0.28 0.21 0.38 0.17 0.11 0.12 0.13 0.07 0.06 0.11 0.30 0.36 0.33 0.36 0.56 0.58 0.73 0.70 0.50 0.37 0.57 0.79 0.80 0.61 0.43 0.46 0.24 0.10 0.15 0.24 0.57 0.82 1.14 1.36 0.97 1.14 1.40 1.37 1.44
1.05 1.30 0.95 1.09 1.17 0.57 0.47 0.27 0.22 0.15 0.09 0.07 0.17 0.19 0.38 0.32 0.47 0.96 1.22 1.14 0.98 0.93 0.64 0.53 0.54 1.37 1.06 0.86 0.52 0.31 0.21 0.18 0.24 0.22 0.29 0.67 1.17 1.47 0.89 0.75 0.92 1.14 1.40
0.98 0.64 0.99 1.16 1.08 0.85 0.51 0.32 0.45 0.50 0.36 0.10 0.11 0.33 0.48 0.69 1.44 2.42 2.66 1.67 1.80 1.70 1.21 0.91 0.69 1.01 1.19 0.84 0.49 0.32 0.25 0.17 0.23 0.45 0.61 0.67 0.85 1.41 1.06 0.79 1.02 1.16 1.23
1.28 1.44 2.10 1.87 1.60 0.90 0.66 0.84 1.09 1.07 0.82 0.57 0.51 0.73 1.03 1.54 2.46 2.43 1.60 1.41 1.85 3.04 1.63 1.18 0.68 0.39 0.30 0.59 0.62 0.66 0.39 0.23 0.56 0.95 1.08 0.86 0.90 1.16 0.88 0.62 0.73 1.01 0.75
2.65 2.49 3.19 4.34 3.86 2.94 1.93 1.42 1.43 1.65 1.34 1.37 1.78 1.84 1.88 1.84 2.50 1.42 0.70 1.07 2.46 2.34 1.07 0.94 0.57 0.32 0.45 0.22 0.27 0.42 0.39 0.33 0.53 0.96 0.98 1.26 1.70 1.74 0.82 0.81 0.77 0.68 0.63
6.24 5.30 5.64 6.72 5.84 4.60 3.53 2.33 2.32 2.14 1.88 1.91 1.67 2.14 2.46 1.36 1.12 0.78 0.42 0.44 0.64 0.56 0.57 0.47 0.22 0.27 0.43 0.28 0.23 0.26 0.38 0.42 0.96 2.05 2.13 1.32 1.50 1.63 1.12 1.20 1.04 0.69 0.51
4.44 5.86 6.91 7.55 8.37 7.51 4.24 3.28 3.30 3.37 2.92 2.39 2.16 1.95 2.16 1.62 1.25 0.97 0.45 0.32 0.26 0.17 0.30 0.37 0.28 0.36 0.41 0.43 0.47 0.43 0.58 0.78 1.19 2.62 2.20 1.85 1.27 1.68 1.83 1.41 0.98 0.62 0.44
2.47 3.25 3.60 3.74 7.20 11.80 8.00 5.03 4.14 3.80 3.59 2.59 2.39 1.76 1.31 1.54 1.55 1.40 0.58 0.29 0.23 0.16 0.31 0.56 0.65 0.70 0.50 0.52 0.63 0.47 0.65 0.65 0.83 0.72 0.81 0.97 0.90 1.52 1.78 1.70 1.27 1.03 0.79
2.75 2.39 1.90 2.61 3.41 5.98 9.68 6.54 5.20 4.22 2.79 2.60 2.23 1.68 1.18 0.96 0.89 0.86 0.49 0.32 0.27 0.27 0.45 0.76 0.73 0.80 0.98 0.69 0.75 0.81 0.53 0.33 0.63 0.73 0.43 0.77 0.70 1.13 1.24 1.27 1.05 1.00 0.84
2.04 2.37 1.92 1.33 1.39 2.07 4.51 4.27 4.57 4.59 2.75 2.18 1.79 1.30 1.13 0.96 0.58 0.41 0.30 0.27 0.42 0.37 0.42 0.49 0.70 0.86 0.78 0.38 0.40 0.43 0.30 0.56 0.86 1.31 0.67 0.47 0.92 1.01 1.13 1.25 1.01 0.91 0.87
1.49 1.77 1.33 1.22 1.03 1.23 2.29 1.98 2.43 3.15 3.41 2.31 1.99 1.25 1.23 0.86 0.54 0.51 0.32 0.34 0.70 0.47 0.24 0.30 0.42 0.51 0.49 0.52 0.31 0.25 0.29 0.65 0.53 1.41 1.08 0.63 1.22 1.30 1.47 1.16 1.26 1.41 1.21
0.81 1.09 1.07 0.63 0.76 1.09 1.07 1.29 1.56 1.59 3.18 2.92 2.22 1.68 1.37 0.91 0.44 0.35 0.24 0.25 0.24 0.42 0.24 0.17 0.22 0.32 0.47 0.63 0.58 0.39 0.38 0.58 0.48 0.78 0.91 0.63 0.93 1.37 1.40 1.32 1.15 1.15 1.38
0.87 1.03 0.96 0.82 0.82 0.76 0.51 0.67 1.32 1.09 1.90 2.91 2.33 1.83 1.35 0.87 0.45 0.26 0.25 0.26 0.18 0.26 0.35 0.32 0.25 0.32 0.40 0.53 0.62 0.47 0.61 0.69 0.69 0.77 0.73 0.51 0.67 1.16 1.13 1.07 1.24 1.36 1.29
0.79 1.16 0.91 0.76 0.88 0.80 0.62 0.65 1.12 1.01 1.10 2.21 1.87 1.39 1.56 0.92 0.51 0.38 0.35 0.22 0.29 0.27 0.29 0.47 0.44 0.39 0.39 0.39 0.59 0.70 0.76 0.87 0.89 1.09 1.26 1.07 0.67 0.65 1.11 1.32 1.11 1.35 1.63
0.56 0.70 0.64 0.87 1.00 0.97 0.84 0.85 1.13 1.15 1.12 1.59 1.33 1.33 1.74 1.00 0.74 0.58 0.50 0.35 0.27 0.32 0.28 0.31 0.43 0.67 0.74 0.60 0.55 0.78 0.92 0.69 0.61 0.67 0.62 0.59 0.68 0.76 0.99 1.26 1.59 1.42 1.17
0.24 0.62 0.97 1.17 1.41 1.45 0.72 0.86 0.92 0.98 1.24 1.47 1.23 1.33 1.82 1.12 0.78 0.76 0.68 0.55 0.45 0.33 0.28 0.29 0.35 0.59 0.71 0.59 0.47 0.50 0.53 0.57 0.43 0.34 0.34 0.34 0.39 0.47 0.77 0.82 0.94 1.80 1.59
0.21 0.39 0.73 1.10 1.25 1.64 1.47 1.91 1.66 1.21 1.13 1.37 1.43 1.39 1.88 1.49 1.22 0.83 0.69 0.71 0.58 0.39 0.39 0.46 0.50 0.44 0.48 0.40 0.38 0.40 0.39 0.49 0.58 0.60 0.33 0.40 0.36 0.31 0.46 0.98 0.99 1.13 1.24
0.09 0.38 0.79 1.21 1.76 3.06 2.33 1.45 0.97 0.95 0.92 1.08 1.28 1.42 2.12 1.64 1.90 1.86 1.20 1.05 0.88 0.63 0.54 0.60 0.56 0.55 0.45 0.37 0.38 0.44 0.44 0.65 0.65 0.72 0.82 0.69 0.48 0.46 0.52 0.81 1.20 1.03 1.24
0.16 0.53 0.85 0.92 1.08 1.12 0.68 0.54 0.54 0.68 1.01 1.05 1.09 1.16 2.31 2.35 1.80 2.31 2.75 1.62 1.39 0.96 0.75 0.80 0.83 0.77 0.66 0.51 0.67 0.58 0.52 0.44 0.51 0.56 0.66 0.69 0.74 0.60 0.77 0.70 1.02 1.07 1.14
0.33 0.38 0.26 0.15 0.12 0.26 0.35 0.39 0.39 0.44 0.68 0.82 1.37 1.07 1.36 1.94 1.86 1.32 1.66 1.67 1.37 1.11 1.02 0.82 0.60 0.49 0.43 0.59 0.62 0.54 0.48 0.45 0.34 0.42 0.52 0.64 0.67 0.65 0.53 0.66 0.81 0.73 1.11
0.04 0.10 0.08 0.09 0.09 0.11 0.17 0.26 0.35 0.40 0.50 0.72 1.40 1.47 1.15 1.55 1.44 1.26 1.33 1.51 1.91 1.80 1.41 1.17 0.95 0.70 0.59 0.47 0.66 0.70 0.54 0.40 0.25 0.17 0.26 0.35 0.32 0.33 0.28 0.46 0.57 0.58 0.76
0.07 0.03 0.09 0.16 0.19 0.15 0.17 0.15 0.18 0.22 0.27 0.43 0.86 1.27 1.35 1.36 1.34 1.42 1.71 1.56 1.43 1.53 1.34 1.09 1.11 1.02 0.86 0.56 0.61 0.60 0.51 0.48 0.54 0.38 0.20 0.24 0.31 0.26 0.26 0.40 0.42 0.50 0.70
0.04 0.09 0.16 0.18 0.32 0.40 0.40 0.25 0.28 0.24 0.30 0.39 0.69 1.27 1.49 1.76 1.98 1.78 1.80 2.04 1.87 1.51 1.38 1.40 1.10 1.18 1.38 1.06 0.61 0.56 0.52 0.49 0.48 0.47 0.35 0.24 0.33 0.25 0.25 0.29 0.38 0.50 0.61
0.07 0.14 0.24 0.23 0.32 0.49 0.63 0.59 0.45 0.45 0.36 0.34 0.49 1.13 1.46 1.78 2.31 2.67 2.74 2.68 2.33 1.99 1.92 1.75 1.88 1.71 1.19 1.22 1.26 1.00 0.82 0.90 0.84 0.87 0.72 0.36 0.31 0.30 0.31 0.30 0.23 0.25 0.38

GFSSE_prec_precacc_357.txt.gz
Total_Precipitation_Accumulation
0.66 0.33 0.33 0.19 0.16 0.16 0.20 0.16 0.09 0.11 0.14 0.20 0.19 0.20 0.22 0.22 0.21 0.24 0.24 0.23 0.26 0.25 0.18 0.14 0.24 0.33 0.32 0.39 0.42 0.60 0.46 0.42 0.67 1.42 1.85 1.62 1.66 1.46 1.27 1.46 1.40 1.32 1.94
1.15 0.62 0.69 0.30 0.12 0.13 0.13 0.13 0.18 0.13 0.15 0.15 0.14 0.25 0.29 0.32 0.24 0.21 0.26 0.38 0.44 0.45 0.38 0.25 0.36 0.51 0.47 0.47 0.38 0.41 0.27 0.11 0.16 0.51 1.30 1.52 1.11 1.01 1.23 1.67 1.66 1.43 1.48
1.38 1.05 0.83 0.70 0.30 0.23 0.38 0.17 0.11 0.12 0.13 0.07 0.06 0.11 0.30 0.36 0.33 0.36 0.56 0.58 0.73 0.70 0.50 0.37 0.57 0.79 0.80 0.61 0.43 0.46 0.24 0.10 0.15 0.24 0.59 0.87 1.14 1.36 0.97 1.14 1.40 1.38 1.44
1.05 1.30 0.95 1.09 1.19 0.58 0.47 0.27 0.22 0.15 0.09 0.07 0.17 0.19 0.38 0.32 0.47 0.96 1.22 1.14 0.98 0.93 0.64 0.53 0.54 1.37 1.06 0.86 0.52 0.31 0.21 0.18 0.25 0.25 0.32 0.70 1.18 1.48 0.89 0.75 0.92 1.14 1.40
0.98 0.64 0.99 1.16 1.10 0.85 0.51 0.32 0.45 0.50 0.36 0.10 0.11 0.33 0.48 0.69 1.44 2.42 2.66 1.67 1.80 1.70 1.21 0.91 0.69 1.01 1.19 0.84 0.49 0.32 0.25 0.17 0.24 0.46 0.61 0.68 0.88 1.46 1.07 0.79 1.02 1.16 1.23
1.28 1.44 2.10 1.88 1.62 0.90 0.66 0.84 1.09 1.07 0.82 0.57 0.51 0.73 1.03 1.54 2.46 2.43 1.60 1.41 1.85 3.04 1.63 1.18 0.68 0.39 0.30 0.59 0.62 0.66 0.39 0.23 0.56 0.95 1.08 0.88 0.93 1.20 0.92 0.64 0.74 1.02 0.77
2.65 2.49 3.19 4.34 3.86 2.94 1.93 1.42 1.43 1.65 1.34 1.37 1.78 1.84 1.88 1.84 2.50 1.42 0.70 1.07 2.46 2.34 1.07 0.94 0.57 0.32 0.45 0.22 0.27 0.42 0.39 0.33 0.53 0.96 0.98 1.26 1.70 1.75 0.84 0.86 0.83 0.72 0.75
6.24 5.30 5.64 6.72 5.84 4.60 3.53 2.33 2.32 2.14 1.88 1.91 1.67 2.14 2.46 1.36 1.12 0.78 0.42 0.44 0.64 0.56 0.57 0.47 0.22 0.27 0.43 0.28 0.23 0.26 0.38 0.42 0.96 2.05 2.13 1.32 1.50 1.63 1.13 1.21 1.05 0.70 0.52
4.44 5.86 6.91 7.55 8.37 7.51 4.24 3.28 3.30 3.37 2.92 2.39 2.16 1.95 2.16 1.62 1.25 0.97 0.45 0.32 0.26 0.17 0.30 0.37 0.28 0.36 0.41 0.43 0.47 0.43 0.58 0.78 1.19 2.62 2.20 1.85 1.27 1.68 1.83 1.41 0.98 0.62 0.45
2.47 3.25 3.60 3.74 7.20 11.80 8.00 5.03 4.14 3.80 3.59 2.59 2.39 1.76 1.31 1.54 1.55 1.40 0.58 0.29 0.23 0.16 0.31 0.56 0.65 0.70 0.50 0.52 0.63 0.47 0.65 0.65 0.83 0.72 0.81 0.97 0.90 1.52 1.78 1.70 1.27 1.03 0.79
2.75 2.39 1.90 2.61 3.41 5.98 9.68 6.54 5.20 4.22 2.79 2.60 2.23 1.68 1.18 0.96 0.89 0.86 0.49 0.32 0.27 0.27 0.45 0.76 0.73 0.80 0.98 0.69 0.75 0.81 0.53 0.33 0.63 0.73 0.43 0.77 0.70 1.13 1.24 1.27 1.05 1.00 0.84
2.04 2.37 1.92 1.33 1.39 2.07 4.51 4.27 4.57 4.59 2.75 2.18 1.79 1.30 1.13 0.96 0.58 0.41 0.30 0.27 0.42 0.37 0.42 0.49 0.70 0.86 0.78 0.38 0.40 0.43 0.30 0.56 0.86 1.31 0.67 0.47 0.92 1.01 1.13 1.25 1.01 0.91 0.87
1.49 1.77 1.33 1.22 1.03 1.23 2.29 1.98 2.43 3.15 3.41 2.31 1.99 1.25 1.23 0.86 0.54 0.51 0.32 0.34 0.70 0.47 0.24 0.30 0.42 0.51 0.49 0.52 0.31 0.25 0.29 0.65 0.53 1.41 1.08 0.63 1.22 1.30 1.47 1.17 1.27 1.41 1.22
0.81 1.09 1.07 0.63 0.76 1.09 1.07 1.29 1.56 1.59 3.18 2.92 2.22 1.68 1.37 0.91 0.44 0.35 0.24 0.25 0.24 0.42 0.24 0.17 0.22 0.32 0.47 0.63 0.58 0.39 0.38 0.58 0.48 0.78 0.91 0.63 0.93 1.37 1.40 1.32 1.15 1.15 1.39
0.87 1.03 0.96 0.82 0.82 0.76 0.51 0.67 1.32 1.09 1.90 2.91 2.33 1.83 1.35 0.87 0.45 0.26 0.25 0.26 0.18 0.26 0.35 0.32 0.25 0.32 0.40 0.53 0.62 0.47 0.61 0.69 0.69 0.77 0.73 0.51 0.67 1.16 1.13 1.07 1.24 1.36 1.29
0.79 1.16 0.91 0.76 0.88 0.80 0.62 0.65 1.12 1.01 1.10 2.21 1.87 1.39 1.56 0.92 0.51 0.38 0.35 0.22 0.29 0.27 0.29 0.47 0.44 0.39 0.39 0.39 0.59 0.70 0.76 0.87 0.89 1.09 1.26 1.07 0.67 0.65 1.11 1.32 1.11 1.35 1.63
0.56 0.70 0.64 0.87 1.00 0.97 0.84 0.85 1.13 1.15 1.12 1.59 1.33 1.33 1.74 1.00 0.74 0.58 0.50 0.35 0.27 0.32 0.28 0.31 0.43 0.67 0.74 0.60 0.55 0.78 0.92 0.69 0.61 0.67 0.62 0.59 0.68 0.76 0.99 1.26 1.59 1.42 1.17
0.24 0.62 0.97 1.17 1.41 1.45 0.72 0.86 0.92 0.98 1.24 1.47 1.23 1.33 1.82 1.12 0.78 0.76 0.68 0.55 0.45 0.33 0.28 0.29 0.35 0.59 0.71 0.59 0.47 0.50 0.53 0.57 0.43 0.34 0.34 0.34 0.39 0.47 0.77 0.82 0.94 1.80 1.59
0.21 0.39 0.73 1.10 1.25 1.64 1.47 1.91 1.66 1.21 1.13 1.37 1.43 1.39 1.88 1.49 1.22 0.83 0.69 0.71 0.58 0.39 0.39 0.46 0.50 0.44 0.48 0.40 0.38 0.40 0.39 0.49 0.58 0.60 0.33 0.40 0.36 0.31 0.46 0.98 0.99 1.13 1.24
0.09 0.38 0.79 1.21 1.76 3.06 2.33 1.45 0.97 0.95 0.92 1.08 1.28 1.42 2.12 1.64 1.90 1.86 1.20 1.05 0.88 0.63 0.54 0.60 0.56 0.55 0.45 0.37 0.38 0.44 0.44 0.65 0.65 0.72 0.82 0.69 0.48 0.46 0.52 0.81 1.20 1.03 1.24
0.16 0.53 0.85 0.92 1.08 1.12 0.68 0.54 0.54 0.68 1.01 1.05 1.09 1.16 2.31 2.35 1.80 2.31 2.75 1.62 1.39 0.96 0.75 0.80 0.83 0.77 0.66 0.51 0.67 0.58 0.52 0.44 0.51 0.56 0.66 0.69 0.74 0.60 0.77 0.70 1.02 1.07 1.14
0.33 0.38 0.26 0.15 0.12 0.26 0.35 0.39 0.39 0.44 0.68 0.82 1.37 1.07 1.36 1.94 1.86 1.32 1.66 1.67 1.37 1.11 1.02 0.82 0.60 0.49 0.43 0.59 0.62 0.54 0.48 0.45 0.34 0.42 0.52 0.64 0.67 0.65 0.53 0.66 0.81 0.73 1.11
0.04 0.10 0.08 0.09 0.09 0.11 0.17 0.26 0.35 0.40 0.50 0.72 1.40 1.47 1.15 1.55 1.44 1.26 1.33 1.51 1.91 1.80 1.41 1.17 0.95 0.70 0.59 0.47 0.66 0.70 0.54 0.40 0.25 0.17 0.26 0.35 0.32 0.33 0.28 0.46 0.57 0.58 0.76
0.07 0.03 0.09 0.16 0.19 0.15 0.17 0.15 0.18 0.22 0.27 0.43 0.86 1.27 1.35 1.36 1.34 1.42 1.71 1.56 1.43 1.53 1.34 1.09 1.11 1.02 0.86 0.56 0.61 0.60 0.51 0.48 0.54 0.38 0.20 0.24 0.31 0.26 0.26 0.40 0.42 0.50 0.70
0.04 0.09 0.16 0.18 0.32 0.40 0.40 0.25 0.28 0.24 0.30 0.39 0.69 1.27 1.49 1.76 1.98 1.78 1.80 2.04 1.87 1.51 1.38 1.40 1.10 1.18 1.38 1.06 0.61 0.56 0.52 0.49 0.48 0.47 0.35 0.24 0.33 0.25 0.25 0.29 0.38 0.50 0.61
0.07 0.14 0.24 0.23 0.32 0.49 0.63 0.59 0.45 0.45 0.36 0.34 0.49 1.13 1.46 1.78 2.31 2.67 2.74 2.68 2.33 1.99 1.92 1.75 1.88 1.71 1.19 1.22 1.26 1.00 0.82 0.90 0.84 0.87 0.72 0.36 0.31 0.30 0.31 0.30 0.23 0.25 0.38

GFSSE_prec_precacc_363.txt.gz
Total_Precipitation_Accumulation
0.66 0.33 0.33 0.19 0.16 0.16 0.20 0.17 0.10 0.12 0.14 0.20 0.19 0.20 0.22 0.22 0.21 0.24 0.24 0.23 0.26 0.25 0.18 0.14 0.24 0.33 0.32 0.39 0.42 0.60 0.46 0.43 0.70 1.49 1.96 1.70 1.67 1.46 1.27 1.46 1.40 1.32 1.94
1.15 0.62 0.69 0.31 0.13 0.14 0.13 0.13 0.19 0.13 0.15 0.15 0.14 0.25 0.29 0.32 0.24 0.21 0.26 0.38 0.44 0.45 0.38 0.25 0.36 0.51 0.47 0.47 0.38 0.41 0.29 0.13 0.20 0.61 1.81 1.97 1.15 1.02 1.24 1.67 1.66 1.43 1.48
1.38 1.05 0.83 0.71 0.31 0.23 0.38 0.18 0.11 0.12 0.13 0.07 0.06 0.11 0.30 0.37 0.33 0.37 0.57 0.58 0.74 0.70 0.50 0.37 0.57 0.79 0.80 0.61 0.43 0.46 0.25 0.13 0.17 0.35 1.13 1.89 1.19 1.38 0.99 1.15 1.40 1.38 1.44
1.05 1.30 0.95 1.10 1.20 0.58 0.47 0.27 0.22 0.15 0.09 0.07 0.17 0.19 0.38 0.32 0.47 0.96 1.22 1.15 0.99 0.93 0.64 0.53 0.54 1.37 1.06 0.86 0.52 0.31 0.21 0.20 0.27 0.27 0.35 0.73 1.18 1.51 0.93 0.76 0.93 1.15 1.41
0.98 0.64 0.99 1.17 1.10 0.85 0.51 0.32 0.45 0.50 0.36 0.10 0.11 0.33 0.48 0.69 1.45 2.43 2.66 1.67 1.80 1.70 1.21 0.91 0.69 1.01 1.19 0.84 0.49 0.32 0.25 0.18 0.24 0.46 0.61 0.68 0.89 1.51 1.11 0.82 1.04 1.20 1.29
1.28 1.44 2.10 1.88 1.62 0.90 0.66 0.84 1.09 1.07 0.82 0.57 0.51 0.73 1.03 1.54 2.46 2.43 1.60 1.41 1.85 3.04 1.63 1.18 0.68 0.39 0.30 0.59 0.62 0.66 0.39 0.23 0.56 0.95 1.08 0.88 0.93 1.22 0.94 0.66 0.76 1.05 0.86
2.65 2.49 3.19 4.34 3.86 2.94 1.93 1.42 1.43 1.65 1.34 1.37 1.78 1.84 1.88 1.84 2.50 1.42 0.70 1.07 2.46 2.34 1.07 0.94 0.57 0.32 0.45 0.22 0.27 0.42 0.39 0.33 0.53 0.96 0.98 1.26 1.70 1.75 0.85 0.86 0.83 0.73 0.77
6.24 5.30 5.64 6.72 5.84 4.60 3.53 2.33 2.32 2.14 1.88 1.91 1.67 2.14 2.46 1.36 1.12 0.78 0.42 0.44 0.64 0.56 0.57 0.47 0.22 0.27 0.43 0.28 0.23 0.26 0.38 0.42 0.96 2.05 2.13 1.32 1.51 1.63 1.13 1.21 1.05 0.70 0.52
4.44 5.86 6.91 7.55 8.37 7.51 4.24 3.28 3.30 3.37 2.92 2.39 2.16 1.95 2.16 1.62 1.25 0.97 0.45 0.32 0.26 0.17 0.30 0.37 0.28 0.36 0.41 0.43 0.47 0.43 0.58 0.78 1.19 2.62 2.20 1.85 1.27 1.69 1.83 1.41 0.98 0.62 0.45
2.47 3.25 3.60 3.74 7.20 11.80 8.00 5.03 4.14 3.80 3.59 2.59 2.39 1.76 1.31 1.54 1.55 1.40 0.58 0.29 0.23 0.16 0.31 0.56 0.65 0.70 0.50 0.52 0.63 0.47 0.65 0.65 0.83 0.72 0.81 0.97 0.90 1.52 1.79 1.71 1.28 1.03 0.80
2.75 2.39 1.90 2.61 3.41 5.98 9.68 6.54 5.20 4.22 2.79 2.60 2.23 1.68 1.18 0.96 0.89 0.86 0.49 0.32 0.27 0.27 0.45 0.76 0.73 0.80 0.98 0.69 0.75 0.81 0.53 0.33 0.63 0.73 0.43 0.77 0.70 1.13 1.24 1.28 1.06 1.01 0.85
2.04 2.37 1.92 1.33 1.39 2.07 4.51 4.27 4.57 4.59 2.75 2.18 1.79 1.30 1.13 0.96 0.58 0.41 0.30 0.27 0.42 0.37 0.42 0.49 0.70 0.86 0.78 0.38 0.40 0.43 0.30 0.56 0.86 1.31 0.67 0.47 0.92 1.01 1.13 1.25 1.02 0.92 0.89
1.49 1.77 1.33 1.22 1.03 1.23 2.29 1.98 2.43 3.15 3.41 2.31 1.99 1.25 1.23 0.86 0.54 0.51 0.32 0.34 0.70 0.47 0.24 0.30 0.42 0.51 0.49 0.52 0.31 0.25 0.29 0.65 0.53 1.41 1.08 0.63 1.22 1.30 1.47 1.17 1.27 1.42 1.22
0.81 1.09 1.07 0.63 0.76 1.09 1.07 1.29 1.56 1.59 3.18 2.92 2.22 1.68 1.37 0.91 0.44 0.35 0.24 0.25 0.24 0.42 0.24 0.17 0.22 0.32 0.47 0.63 0.58 0.39 0.38 0.58 0.48 0.78 0.91 0.63 0.93 1.37 1.40 1.32 1.15 1.15 1.39
0.87 1.03 0.96 0.82 0.82 0.76 0.51 0.67 1.32 1.09 1.90 2.91 2.33 1.83 1.35 0.87 0.45 0.26 0.25 0.26 0.18 0.26 0.35 0.32 0.25 0.32 0.40 0.53 0.62 0.47 0.61 0.69 0.69 0.77 0.73 0.51 0.67 1.16 1.13 1.07 1.24 1.36 1.29
0.79 1.16 0.91 0.76 0.88 0.80 0.62 0.65 1.12 1.01 1.10 2.21 1.87 1.39 1.56 0.92 0.51 0.38 0.35 0.22 0.29 0.27 0.29 0.47 0.44 0.39 0.39 0.39 0.59 0.70 0.76 0.87 0.89 1.09 1.26 1.07 0.67 0.65 1.11 1.32 1.11 1.35 1.63
0.56 0.70 0.64 0.87 1.00 0.97 0.84 0.85 1.13 1.15 1.12 1.59 1.33 1.33 1.74 1.00 0.74 0.58 0.50 0.35 0.27 0.32 0.28 0.31 0.43 0.67 0.74 0.60 0.55 0.78 0.92 0.69 0.61 0.67 0.62 0.59 0.68 0.76 0.99 1.26 1.59 1.42 1.17
0.24 0.62 0.97 1.17 1.41 1.45 0.72 0.86 0.92 0.98 1.24 1.47 1.23 1.33 1.82 1.12 0.78 0.76 0.68 0.55 0.45 0.33 0.28 0.29 0.35 0.59 0.71 0.59 0.47 0.50 0.53 0.57 0.43 0.34 0.34 0.34 0.39 0.47 0.77 0.82 0.94 1.80 1.59
0.21 0.39 0.73 1.10 1.25 1.64 1.47 1.91 1.66 1.21 1.13 1.37 1.43 1.39 1.88 1.49 1.22 0.83 0.69 0.71 0.58 0.39 0.39 0.46 0.50 0.44 0.48 0.40 0.38 0.40 0.39 0.49 0.58 0.60 0.33 0.40 0.36 0.31 0.46 0.98 0.99 1.13 1.24
0.09 0.38 0.79 1.21 1.76 3.06 2.33 1.45 0.97 0.95 0.92 1.08 1.28 1.42 2.12 1.64 1.90 1.86 1.20 1.05 0.88 0.63 0.54 0.60 0.56 0.55 0.45 0.37 0.38 0.44 0.44 0.65 0.65 0.72 0.82 0.69 0.48 0.46 0.52 0.81 1.20 1.03 1.24
0.16 0.53 0.85 0.92 1.08 1.12 0.68 0.54 0.54 0.68 1.01 1.05 1.09 1.16 2.31 2.35 1.80 2.31 2.75 1.62 1.39 0.96 0.75 0.80 0.83 0.77 0.66 0.51 0.67 0.58 0.52 0.44 0.51 0.56 0.66 0.69 0.74 0.60 0.77 0.70 1.02 1.07 1.14
0.33 0.38 0.26 0.15 0.12 0.26 0.35 0.39 0.39 0.44 0.68 0.82 1.37 1.07 1.36 1.94 1.86 1.32 1.66 1.67 1.37 1.11 1.02 0.82 0.60 0.49 0.43 0.59 0.62 0.54 0.48 0.45 0.34 0.42 0.52 0.64 0.67 0.65 0.53 0.66 0.81 0.73 1.11
0.04 0.10 0.08 0.09 0.09 0.11 0.17 0.26 0.35 0.40 0.50 0.72 1.40 1.47 1.15 1.55 1.44 1.26 1.33 1.51 1.91 1.80 1.41 1.17 0.95 0.70 0.59 0.47 0.66 0.70 0.54 0.40 0.25 0.17 0.26 0.35 0.32 0.33 0.28 0.46 0.57 0.58 0.76
0.07 0.03 0.09 0.16 0.19 0.15 0.17 0.15 0.18 0.22 0.27 0.43 0.86 1.27 1.35 1.36 1.34 1.42 1.71 1.56 1.43 1.53 1.34 1.09 1.11 1.02 0.86 0.56 0.61 0.60 0.51 0.48 0.54 0.38 0.20 0.24 0.31 0.26 0.26 0.40 0.42 0.50 0.70
0.05 0.09 0.16 0.18 0.32 0.40 0.40 0.25 0.28 0.24 0.30 0.39 0.69 1.27 1.49 1.76 1.98 1.78 1.80 2.04 1.87 1.51 1.38 1.40 1.10 1.18 1.38 1.06 0.61 0.56 0.52 0.49 0.48 0.47 0.35 0.24 0.33 0.25 0.25 0.29 0.38 0.50 0.61
0.08 0.16 0.24 0.23 0.32 0.49 0.63 0.59 0.45 0.45 0.36 0.34 0.49 1.13 1.46 1.78 2.31 2.67 2.74 2.68 2.33 1.99 1.92 1.75 1.88 1.71 1.19 1.22 1.26 1.00 0.82 0.90 0.84 0.87 0.72 0.36 0.31 0.30 0.31 0.30 0.23 0.25 0.38

GFSSE_prec_precacc_369.txt.gz
Total_Precipitation_Accumulation
0.67 0.34 0.33 0.19 0.16 0.16 0.20 0.17 0.10 0.12 0.14 0.20 0.19 0.20 0.22 0.22 0.21 0.24 0.24 0.23 0.26 0.25 0.18 0.14 0.24 0.33 0.32 0.39 0.42 0.61 0.47 0.45 0.79 1.69 2.05 1.77 1.74 1.49 1.28 1.46 1.40 1.32 1.95
1.15 0.62 0.69 0.31 0.13 0.14 0.13 0.13 0.19 0.13 0.15 0.15 0.15 0.26 0.30 0.33 0.25 0.21 0.27 0.38 0.44 0.45 0.38 0.25 0.36 0.51 0.47 0.47 0.38 0.41 0.29 0.13 0.20 0.62 1.82 1.98 1.19 1.12 1.31 1.68 1.67 1.43 1.48
1.38 1.06 0.83 0.71 0.31 0.23 0.38 0.18 0.11 0.12 0.13 0.07 0.07 0.12 0.30 0.37 0.33 0.37 0.57 0.58 0.74 0.70 0.50 0.37 0.57 0.79 0.80 0.61 0.43 0.46 0.25 0.13 0.17 0.35 1.13 1.89 1.20 1.44 1.07 1.19 1.45 1.43 1.51
1.05 1.30 0.95 1.10 1.20 0.58 0.47 0.27 0.22 0.15 0.09 0.07 0.17 0.20 0.38 0.32 0.47 0.96 1.22 1.15 0.99 0.93 0.64 0.53 0.54 1.37 1.06 0.86 0.52 0.31 0.21 0.20 0.27 0.27 0.35 0.73 1.19 1.52 0.94 0.78 0.98 1.23 1.51
0.98 0.64 0.99 1.17 1.10 0.85 0.51 0.32 0.45 0.50 0.36 0.10 0.12 0.33 0.49 0.69 1.45 2.43 2.66 1.67 1.80 1.70 1.21 0.91 0.69 1.01 1.19 0.84 0.49 0.32 0.25 0.18 0.24 0.46 0.61 0.68 0.89 1.51 1.11 0.82 1.05 1.21 1.33
1.28 1.44 2.10 1.88 1.62 0.90 0.66 0.84 1.09 1.07 0.82 0.57 0.51 0.73 1.03 1.54 2.46 2.43 1.60 1.41 1.85 3.04 1.63 1.18 0.68 0.39 0.30 0.59 0.62 0.66 0.39 0.23 0.56 0.95 1.08 0.88 0.93 1.22 0.94 0.67 0.76 1.05 0.87
2.65 2.49 3.19 4.34 3.86 2.94 1.93 1.42 1.43 1.65 1.34 1.37 1.78 1.84 1.88 1.84 2.50 1.42 0.70 1.07 2.46 2.34 1.07 0.94 0.57 0.32 0.45 0.22 0.27 0.42 0.39 0.33 0.53 0.96 0.98 1.26 1.71 1.76 0.86 0.87 0.84 0.73 0.77
6.24 5.30 5.64 6.72 5.84 4.60 3.53 2.33 2.32 2.14 1.88 1.91 1.67 2.14 2.46 1.36 1.12 0.78 0.42 0.44 0.64 0.56 0.57 0.47 0.22 0.27 0.43 0.28 0.23 0.26 0.38 0.42 0.96 2.05 2.13 1.32 1.52 1.65 1.15 1.23 1.06 0.71 0.54
4.44 5.86 6.91 7.55 8.37 7.51 4.24 3.28 3.30 3.37 2.92 2.39 2.16 1.95 2.16 1.62 1.25 0.97 0.45 0.32 0.26 0.17 0.30 0.37 0.28 0.36 0.41 0.43 0.47 0.43 0.58 0.78 1.19 2.62 2.20 1.85 1.28 1.69 1.85 1.43 1.00 0.64 0.47
2.47 3.25 3.60 3.74 7.20 11.80 8.00 5.03 4.14 3.80 3.59 2.59 2.39 1.76 1.31 1.54 1.55 1.40 0.58 0.29 0.23 0.16 0.31 0.56 0.65 0.70 0.50 0.52 0.63 0.47 0.65 0.65 0.83 0.72 0.81 0.97 0.90 1.53 1.79 1.72 1.28 1.04 0.82
2.75 2.39 1.90 2.61 3.41 5.98 9.68 6.54 5.20 4.22 2.79 2.60 2.23 1.68 1.18 0.96 0.89 0.86 0.49 0.32 0.27 0.27 0.45 0.76 0.73 0.80 0.98 0.69 0.75 0.81 0.53 0.33 0.63 0.73 0.43 0.77 0.70 1.13 1.24 1.28 1.06 1.01 0.85
2.04 2.37 1.92 1.33 1.39 2.07 4.51 4.27 4.57 4.59 2.75 2.18 1.79 1.30 1.13 0.96 0.58 0.41 0.30 0.27 0.42 0.37 0.42 0.49 0.70 0.86 0.78 0.38 0.40 0.43 0.30 0.56 0.86 1.31 0.67 0.47 0.92 1.01 1.13 1.25 1.02 0.92 0.89
1.49 1.77 1.33 1.22 1.03 1.23 2.29 1.98 2.43 3.15 3.41 2.31 1.99 1.25 1.23 0.86 0.54 0.51 0.32 0.34 0.70 0.47 0.24 0.30 0.42 0.51 0.49 0.52 0.31 0.25 0.29 0.65 0.53 1.41 1.08 0.63 1.22 1.30 1.47 1.17 1.27 1.42 1.22
0.81 1.09 1.07 0.63 0.76 1.09 1.07 1.29 1.56 1.59 3.18 2.92 2.22 1.68 1.37 0.91 0.44 0.35 0.24 0.25 0.24 0.42 0.24 0.17 0.22 0.32 0.47 0.63 0.58 0.39 0.38 0.58 0.48 0.78 0.91 0.63 0.93 1.37 1.40 1.32 1.15 1.15 1.39
0.87 1.03 0.96 0.82 0.82 0.76 0.51 0.67 1.32 1.09 1.90 2.91 2.33 1.83 1.35 0.87 0.45 0.26 0.25 0.26 0.18 0.26 0.35 0.32 0.25 0.32 0.40 0.53 0.62 0.47 0.61 0.69 0.69 0.77 0.73 0.51 0.67 1.16 1.13 1.07 1.24 1.36 1.29
0.79 1.16 0.91 0.76 0.88 0.80 0.62 0.65 1.12 1.01 1.10 2.21 1.87 1.39 1.56 0.92 0.51 0.38 0.35 0.22 0.29 0.27 0.29 0.47 0.44 0.39 0.39 0.39 0.59 0.70 0.76 0.87 0.89 1.09 1.26 1.07 0.67 0.65 1.11 1.32 1.11 1.35 1.63
0.56 0.70 0.64 0.87 1.00 0.97 0.84 0.85 1.13 1.15 1.12 1.59 1.33 1.33 1.74 1.00 0.74 0.58 0.50 0.35 0.27 0.32 0.28 0.31 0.43 0.67 0.74 0.60 0.55 0.78 0.92 0.69 0.61 0.67 0.62 0.59 0.68 0.76 0.99 1.26 1.59 1.42 1.17
0.24 0.62 0.97 1.17 1.41 1.45 0.72 0.86 0.92 0.98 1.24 1.47 1.23 1.33 1.82 1.12 0.78 0.76 0.68 0.55 0.45 0.33 0.28 0.29 0.35 0.59 0.71 0.59 0.47 0.50 0.53 0.57 0.43 0.34 0.34 0.34 0.39 0.47 0.77 0.82 0.94 1.80 1.59
0.21 0.39 0.73 1.10 1.25 1.64 1.47 1.91 1.66 1.21 1.13 1.37 1.43 1.39 1.88 1.49 1.22 0.83 0.69 0.71 0.58 0.39 0.39 0.46 0.50 0.44 0.48 0.40 0.38 0.40 0.39 0.49 0.58 0.60 0.33 0.40 0.36 0.31 0.46 0.98 0.99 1.13 1.24
0.09 0.38 0.79 1.21 1.76 3.06 2.33 1.45 0.97 0.95 0.92 1.08 1.28 1.42 2.12 1.64 1.90 1.86 1.20 1.05 0.88 0.63 0.54 0.60 0.56 0.55 0.45 0.37 0.38 0.44 0.44 0.65 0.65 0.72 0.82 0.69 0.48 0.46 0.52 0.81 1.20 1.03 1.24
0.16 0.53 0.85 0.92 1.08 1.12 0.68 0.54 0.54 0.68 1.01 1.05 1.09 1.16 2.31 2.35 1.80 2.31 2.75 1.62 1.39 0.96 0.75 0.80 0.83 0.77 0.66 0.51 0.67 0.58 0.52 0.44 0.51 0.56 0.66 0.69 0.74 0.60 0.77 0.70 1.02 1.07 1.14
0.34 0.38 0.26 0.15 0.12 0.26 0.35 0.39 0.39 0.44 0.68 0.82 1.37 1.07 1.36 1.94 1.86 1.32 1.66 1.67 1.37 1.11 1.02 0.82 0.60 0.49 0.43 0.59 0.62 0.54 0.48 0.45 0.34 0.42 0.52 0.64 0.67 0.65 0.53 0.66 0.81 0.73 1.11
0.05 0.10 0.08 0.09 0.09 0.11 0.17 0.26 0.35 0.40 0.50 0.72 1.40 1.47 1.15 1.55 1.44 1.26 1.33 1.51 1.91 1.80 1.41 1.17 0.95 0.70 0.59 0.47 0.66 0.70 0.54 0.40 0.25 0.17 0.26 0.35 0.32 0.33 0.28 0.46 0.57 0.58 0.76
0.07 0.04 0.10 0.16 0.19 0.15 0.17 0.15 0.18 0.22 0.27 0.43 0.86 1.27 1.35 1.36 1.34 1.42 1.71 1.56 1.43 1.53 1.34 1.09 1.11 1.02 0.86 0.56 0.61 0.60 0.51 0.48 0.54 0.38 0.20 0.24 0.31 0.26 0.26 0.40 0.42 0.50 0.70
0.07 0.13 0.19 0.19 0.32 0.40 0.40 0.25 0.28 0.24 0.30 0.39 0.69 1.27 1.49 1.76 1.98 1.78 1.80 2.04 1.87 1.51 1.38 1.40 1.10 1.18 1.38 1.06 0.61 0.56 0.52 0.49 0.48 0.47 0.35 0.24 0.33 0.25 0.25 0.29 0.38 0.50 0.61
0.10 0.19 0.28 0.25 0.33 0.49 0.63 0.59 0.45 0.45 0.36 0.34 0.49 1.13 1.46 1.78 2.31 2.67 2.74 2.68 2.33 1.99 1.92 1.75 1.88 1.71 1.19 1.22 1.26 1.00 0.82 0.90 0.84 0.87 0.72 0.36 0.31 0.30 0.31 0.30 0.23 0.25 0.38